STARLINK-35484 (65923 NORAD) Tracking and Keplerian Element Data

This shows tracking and keplerian element data for the satellite.

Feedback or suggestion? Click here.




ElementValue
Catalog65923
NameSTARLINK-35484
Epoch Orbit1224
Epoch Day354.22026139
Epoch Year2025
RAAN174.6125
Inclination53.1582
Eccentricity0.0001083
Argument of Perigee101.1966
Mean Anonmoly258.9157
Mean Motion15.30201549
Decay Rate0.00013396
L11 65923U 25225P 25354.22026139 .00013396 00000+0 46357-3 0 9994
L22 65923 53.1582 174.6125 0001083 101.1966 258.9157 15.30201549 12249



Live tracking and technical data element details for STARLINK-35484 (NORAD 65923). STARLINK-35484 can be tracked NOW for your location showing map with azimuth and elevation plus other details from your city location.







IsCatalogInMostPopularTable: catalog: 65923, numindb: 4
Update: records affected: 1



GetName: 65923 STARLINK-35484

Hit Count: updated at: Mon, 09 Feb 2026 08:04:39 GMT